Kamikawa Maru — JG5687 — position and weather

sailwx.info

Track history (hours):
 
Tides and Currents Weather Stations Pressure Air Temp Water Temp Dewpoint Dewpoint Depression Visibility Wind Speed Wind Dir Waves Ship Positions

Kamikawa Maru

Last reported at 2018-Jan-21 10:30 UTC. Time now 2018-Jan-21 10:43 UTC.
Position N 34°29' E 138°27'.

Length 162 m; draft 6.8 m.

Type: Cargo ship. MMSI: 431101012.

Date/timePositionNaut miles runAvg speedWind from/ knotsBaromVisibWave heightAir tempDewpointWater temp
2018-Jan-21 10:30N 34°29' E 138°27'918.5
2018-Jan-21 10:00N 34°30' E 138°38'918.5
2018-Jan-21 09:30N 34°32' E 138°49'817.3
2018-Jan-21 09:00N 34°33' E 138°59'918.2
2018-Jan-21 08:29N 34°40' E 139°07'1017.8
2018-Jan-21 07:57N 34°48' E 139°14'917.5
2018-Jan-21 07:26N 34°54' E 139°23'717.6
2018-Jan-21 07:00N 34°59' E 139°30'1019.3
2018-Jan-21 06:30N 35°05' E 139°39'917.2
2018-Jan-21 06:00N 35°11' E 139°46'612.7
2018-Jan-21 05:30N 35°17' E 139°45'714.0
2018-Jan-21 05:01N 35°24' E 139°43'918.4
2018-Jan-21 04:30N 35°31' E 139°51'815.6
2018-Jan-21 04:00N 35°37' E 139°46'1 0.1
2018-Jan-20 23:58N 35°38' E 139°46'1 1.1
2018-Jan-20 23:30N 35°37' E 139°46'611.6
2018-Jan-20 23:00N 35°33' E 139°51'714.0
2018-Jan-20 22:31N 35°26' E 139°49'713.3
2018-Jan-20 22:00N 35°21' E 139°45'611.5
2018-Jan-20 21:30N 35°15' E 139°47'714.7
2018-Jan-20 21:00N 35°08' E 139°45'917.8
2018-Jan-20 20:30N 34°59' E 139°42'816.8
2018-Jan-20 20:00N 34°52' E 139°46'1016.3
2018-Jan-20 19:22N 34°52' E 139°59'817.6
2018-Jan-20 18:55N 34°56' E 140°07'1217.5
2018-Jan-20 18:13N 35°02' E 140°20'  
Track history (hours):
 
Tides and Currents Weather Stations Pressure Air Temp Water Temp Dewpoint Dewpoint Depression Visibility Wind Speed Wind Dir Waves Ship Positions

Kamikawa Maru

Last reported at 2018-Jan-21 10:30 UTC. Time now 2018-Jan-21 10:43 UTC.
Position N 34°29' E 138°27'.

Length 162 m; draft 6.8 m.

Type: Cargo ship. MMSI: 431101012.

Date/timePositionNaut miles runAvg speedWind from/ knotsBaromVisibWave heightAir tempDewpointWater temp
2018-Jan-21 10:30N 34°29' E 138°27'918.5
2018-Jan-21 10:00N 34°30' E 138°38'918.5
2018-Jan-21 09:30N 34°32' E 138°49'817.3
2018-Jan-21 09:00N 34°33' E 138°59'918.2
2018-Jan-21 08:29N 34°40' E 139°07'1017.8
2018-Jan-21 07:57N 34°48' E 139°14'917.5
2018-Jan-21 07:26N 34°54' E 139°23'717.6
2018-Jan-21 07:00N 34°59' E 139°30'1019.3
2018-Jan-21 06:30N 35°05' E 139°39'917.2
2018-Jan-21 06:00N 35°11' E 139°46'612.7
2018-Jan-21 05:30N 35°17' E 139°45'714.0
2018-Jan-21 05:01N 35°24' E 139°43'918.4
2018-Jan-21 04:30N 35°31' E 139°51'815.6
2018-Jan-21 04:00N 35°37' E 139°46'1 0.1
2018-Jan-20 23:58N 35°38' E 139°46'1 1.1
2018-Jan-20 23:30N 35°37' E 139°46'611.6
2018-Jan-20 23:00N 35°33' E 139°51'714.0
2018-Jan-20 22:31N 35°26' E 139°49'713.3
2018-Jan-20 22:00N 35°21' E 139°45'611.5
2018-Jan-20 21:30N 35°15' E 139°47'714.7
2018-Jan-20 21:00N 35°08' E 139°45'917.8
2018-Jan-20 20:30N 34°59' E 139°42'816.8
2018-Jan-20 20:00N 34°52' E 139°46'1016.3
2018-Jan-20 19:22N 34°52' E 139°59'817.6
2018-Jan-20 18:55N 34°56' E 140°07'1217.5
2018-Jan-20 18:13N 35°02' E 140°20'  

Dump ship's entire track history